TimeCDT,TemperatureF,Dew PointF,Humidity,Sea Level PressureIn,VisibilityMPH,Wind Direction,Wind SpeedMPH,Gust SpeedMPH,PrecipitationIn,Events,Conditions,WindDirDegrees,DateUTC
12:52 AM,30.0,24.1,79,30.08,10.0,East,8.1,-,N/A,,Overcast,80,2013-03-23 05:52:00
1:52 AM,30.0,24.1,79,30.12,10.0,East,4.6,-,N/A,,Overcast,90,2013-03-23 06:52:00
2:52 AM,30.0,24.1,79,30.14,10.0,East,3.5,-,N/A,,Overcast,90,2013-03-23 07:52:00
3:52 AM,30.0,24.1,79,30.11,10.0,ENE,4.6,-,N/A,,Overcast,60,2013-03-23 08:52:00
4:52 AM,28.9,23.0,78,30.11,10.0,NE,3.5,-,N/A,,Overcast,50,2013-03-23 09:52:00
5:52 AM,28.9,23.0,78,30.13,10.0,Calm,Calm,-,N/A,,Overcast,0,2013-03-23 10:52:00
6:52 AM,28.9,23.0,78,30.14,10.0,ENE,3.5,-,N/A,,Overcast,70,2013-03-23 11:52:00
7:52 AM,28.9,23.0,78,30.16,10.0,Calm,Calm,-,N/A,,Overcast,0,2013-03-23 12:52:00
8:52 AM,28.9,23.0,78,30.17,10.0,ENE,3.5,-,N/A,,Overcast,70,2013-03-23 13:52:00
9:52 AM,30.0,21.0,69,30.18,10.0,NE,5.8,-,N/A,,Overcast,40,2013-03-23 14:52:00
10:52 AM,30.0,19.9,66,30.18,10.0,NE,4.6,-,N/A,,Overcast,50,2013-03-23 15:52:00
11:52 AM,32.0,19.9,61,30.17,10.0,NE,8.1,-,N/A,,Overcast,50,2013-03-23 16:52:00
12:52 PM,33.1,21.9,64,30.16,7.0,ENE,8.1,-,N/A,,Overcast,60,2013-03-23 17:52:00
1:14 PM,32.0,24.8,75,30.12,2.5,East,9.2,-,0.00,Snow,Light Snow,80,2013-03-23 18:14:00
1:35 PM,32.0,26.6,80,30.12,1.5,ENE,6.9,-,0.00,Snow,Light Snow,60,2013-03-23 18:35:00
1:52 PM,30.2,26.6,86,30.12,1.0,ENE,5.8,-,N/A,Snow,Light Snow,70,2013-03-23 18:52:00
2:13 PM,32.0,26.6,80,30.12,1.8,East,5.8,-,0.01,Snow,Light Snow,90,2013-03-23 19:13:00
2:52 PM,32.0,28.0,85,30.14,1.5,NE,6.9,-,0.01,Snow,Light Snow,40,2013-03-23 19:52:00
3:24 PM,32.0,28.4,87,30.10,2.5,ENE,5.8,-,0.01,Snow,Light Snow,60,2013-03-23 20:24:00
3:34 PM,33.8,28.4,81,30.10,4.0,NE,8.1,-,0.01,Snow,Light Snow,50,2013-03-23 20:34:00
3:37 PM,33.8,28.4,81,30.10,2.5,NE,8.1,-,0.01,Snow,Light Snow,50,2013-03-23 20:37:00
3:52 PM,33.1,28.0,82,30.13,2.5,ENE,8.1,-,0.01,Snow,Light Snow,60,2013-03-23 20:52:00
4:05 PM,32.0,28.4,87,30.09,1.5,NNE,8.1,-,0.00,Snow,Light Snow,30,2013-03-23 21:05:00
4:52 PM,32.0,28.9,88,30.13,1.5,NNE,9.2,-,0.00,Snow,Light Snow,30,2013-03-23 21:52:00
5:03 PM,33.8,28.4,81,30.09,2.5,NNE,10.4,-,0.01,Snow,Light Snow,20,2013-03-23 22:03:00
5:10 PM,33.8,28.4,81,30.09,5.0,NNE,6.9,-,0.01,,Overcast,20,2013-03-23 22:10:00
5:28 PM,33.8,26.6,75,30.10,8.0,NNE,10.4,-,0.01,,Overcast,20,2013-03-23 22:28:00
5:52 PM,33.1,27.0,78,30.14,5.0,NNE,10.4,-,0.01,,Haze,30,2013-03-23 22:52:00
6:12 PM,32.0,28.4,87,30.10,2.0,NNE,10.4,-,0.00,Snow,Light Snow,30,2013-03-23 23:12:00
6:19 PM,32.0,28.4,87,30.10,1.5,NNE,8.1,-,0.00,Snow,Light Snow,20,2013-03-23 23:19:00
6:52 PM,30.9,28.9,92,30.15,1.2,NNE,5.8,-,0.00,Snow,Light Snow,20,2013-03-23 23:52:00
7:05 PM,30.2,28.4,93,30.11,1.8,North,8.1,-,0.00,Snow,Light Snow,10,2013-03-24 00:05:00
7:12 PM,30.2,28.4,93,30.11,1.8,North,13.8,-,0.00,Snow,Light Snow,360,2013-03-24 00:12:00
7:21 PM,30.2,28.4,93,30.11,2.5,North,15.0,-,0.00,,Overcast,10,2013-03-24 00:21:00
7:28 PM,30.2,28.4,93,30.11,2.5,North,16.1,-,0.00,,Overcast,360,2013-03-24 00:28:00
7:36 PM,30.2,26.6,86,30.12,4.0,North,16.1,-,0.00,,Overcast,360,2013-03-24 00:36:00
7:52 PM,30.0,27.0,88,30.16,4.0,North,10.4,-,0.00,,Overcast,10,2013-03-24 00:52:00
8:52 PM,30.9,27.0,85,30.17,10.0,North,10.4,-,N/A,,Overcast,10,2013-03-24 01:52:00
9:03 PM,30.2,26.6,86,30.13,10.0,North,10.4,-,N/A,,Overcast,10,2013-03-24 02:03:00
9:22 PM,30.2,26.6,86,30.13,10.0,North,13.8,-,N/A,,Overcast,10,2013-03-24 02:22:00
9:52 PM,30.0,26.1,85,30.17,10.0,North,11.5,-,N/A,,Overcast,360,2013-03-24 02:52:00
10:52 PM,28.9,25.0,85,30.17,10.0,North,15.0,-,N/A,,Overcast,350,2013-03-24 03:52:00
11:02 PM,28.4,24.8,86,30.13,10.0,North,16.1,-,N/A,,Overcast,350,2013-03-24 04:02:00
11:52 PM,28.0,23.0,81,30.16,10.0,North,13.8,-,N/A,,Overcast,360,2013-03-24 04:52:00